Regional Weather Roundup
Issued by NWS

Home | Current Version | Previous Version | Graphics & Text | Print | Product List | Glossary On
Versions: 1 2 3 4 5 6 7 8 9 10 11 12 13 14 15 16 17 18 19 20 21 22 23 24 25 26 27 28 29 30 31 32 33 34 35 36 37 38 39 40 41 42 43 44 45 46 47 48 49 50
325
ASUS44 KJAN 302010
RWRMS

MISSISSIPPI HOURLY WEATHER ROUNDUP
NATIONAL WEATHER SERVICE JACKSON MS
300 PM CDT THU OCT 30 2014

NOTE: "FAIR: INDICATES FEW OR NO CLOUDS BELOW 12,000 FEET WITH NO
SIGNIFICANT WEATHER AND/OR OBSTRUCTIONS TO VISIBILITY.

MSZ001>002-007>008-010>013-018>021-025>028-034>036-302100-
NORTHWEST MISSISSIPPI

CITY           SKY/WX    TMP DP  RH WIND       PRES   REMARKS
CLARKSDALE     FAIR      68  43  40 CALM      30.07F
CLEVELAND      FAIR      71  44  37 NW7       30.07F
GREENWOOD      SUNNY     70  41  34 CALM      30.08F
GREENVILLE     SUNNY     72  43  35 W6        30.07F
GRENADA        FAIR      70  37  30 CALM      30.08F
OLIVE BRANCH   SUNNY     66  39  37 NW3       30.07F
OXFORD         FAIR      66  37  34 NW8       30.09F
TUNICA         CLEAR     68  37  32 SW3       30.07F
$$

MSZ003>006-009-014>017-022>024-029>033-037>039-302100-
NORTHEAST MISSISSIPPI

CITY           SKY/WX    TMP DP  RH WIND       PRES   REMARKS
COLUMBUS AFB   SUNNY     68  33  27 NW8       30.06F
CORINTH        FAIR      66  36  32 CALM      30.07F
GOLDN TRIANGLE SUNNY     70  34  26 N9        30.07F
STARKVILLE     FAIR      68  34  28 NE3       30.07F
TUPELO         SUNNY     67  37  33 NE5       30.07F
$$

MSZ040-058-302100-
CENTRAL MISSISSIPPI

CITY           SKY/WX    TMP DP  RH WIND       PRES   REMARKS
JACKSON INTL   MOSUNNY   73  40  30 NE6       30.06F
JACKSON HAWKNS SUNNY     72  37  28 N8        30.07F
MERIDIAN KEY   SUNNY     71  34  25 N9        30.05F
MERIDIAN NAS   SUNNY     70  34  26 N9        30.06F
RAYMOND        FAIR      72  66  83 N8        30.07F
VICKSBURG      SUNNY     74  43  32 NE6       30.07F
$$

MSZ059>079-302100-
SOUTH MISSISSIPPI

CITY           SKY/WX    TMP DP  RH WIND       PRES   REMARKS
BROOKHAVEN     FAIR      72  39  30 N3        30.07F
COLUMBIA         N/A     72  37  28 MISG      30.03F
HATTIESBURG    SUNNY     73  39  29 NW8G21    30.04F
MCCOMB         SUNNY     73  33  23 N8        30.05F
NATCHEZ        SUNNY     72  43  35 N8        30.08F
PINE BELT      SUNNY     73  37  27 N9        30.06F
$$

MSZ080>082-302100-
COASTAL MISSISSIPPI

CITY           SKY/WX    TMP DP  RH WIND       PRES   REMARKS
BAY ST LOUIS   SUNNY     73  32  21 N9        30.03F
BILOXI         SUNNY     73  40  30 N10       30.02F
PASCAGOULA     SUNNY     73  39  29 N10G21    30.01F
GULFPORT       SUNNY     74  40  29 N10       30.01F
$$



USA.gov is the U.S. government's official web portal to all federal, state and local government web resources and services.